DW3929 Weather Reports


Display with metric or nautical units.
time (UTC)temp
F
wind
direction
speed
MPH
gust
MPH
rain 1hr
in
rain 24hr
in
rain mn
in
humidity
%
barometer
mb
20260510124352 71 360 0.0 1.0 0.00 0.00 0.00 97 1011.9
20260510123830 71 360 0.0 1.0 0.00 0.00 0.00 97 1011.8
20260510123330 71 360 0.0 1.0 0.00 0.00 0.00 97 1011.8
20260510122831 71 360 0.0 3.0 0.00 0.00 0.00 97 1011.8
20260510122332 71 360 1.0 3.0 0.00 0.00 0.00 97 1011.7
20260510121830 70 360 1.0 2.0 0.00 0.00 0.00 97 1011.6
20260510121328 70 360 0.0 1.0 0.00 0.00 0.00 96 1011.4
20260510120829 70 360 0.0 1.0 0.00 0.00 0.00 97 1011.4
20260510120328 70 360 0.0 1.0 0.00 0.00 0.00 96 1011.4
20260510115828 70 360 0.0 0.0 0.00 0.00 0.00 96 1011.2
20260510115330 70 360 0.0 0.0 0.00 0.00 0.00 96 1011.2
20260510114831 70 360 0.0 2.0 0.00 0.00 0.00 96 1011.1
20260510114350 70 360 0.0 2.0 0.00 0.00 0.00 96 1011.0
20260510113847 69 360 1.0 2.0 0.00 0.00 0.00 96 1011.1
20260510113314 69 360 0.0 4.0 0.00 0.00 0.00 97 1011.0
20260510112852 69 360 1.0 4.0 0.00 0.00 0.00 97 1010.7
20260510112329 69 360 2.0 4.0 0.00 0.00 0.00 97 1010.6
20260510111829 69 360 1.0 4.0 0.00 0.00 0.00 96 1010.6
20260510111329 69 360 1.0 3.0 0.00 0.00 0.00 96 1010.6
20260510110829 69 360 1.0 2.0 0.00 0.00 0.00 96 1010.6
20260510110329 69 360 0.0 2.0 0.00 0.00 0.00 96 1010.6
20260510105824 68 360 0.0 3.0 0.00 0.00 0.00 96 1010.6
20260510105322 68 360 1.0 3.0 0.00 0.00 0.00 95 1010.6
20260510104820 68 360 0.0 2.0 0.00 0.00 0.00 95 1010.7
20260510104319 69 360 0.0 2.0 0.00 0.00 0.00 95 1010.6
20260510103818 69 360 0.0 2.0 0.00 0.00 0.00 95 1010.5
20260510103316 69 360 0.0 2.0 0.00 0.00 0.00 95 1010.5
20260510102816 69 360 0.0 3.0 0.00 0.00 0.00 95 1010.5
20260510102332 69 360 0.0 3.0 0.00 0.00 0.00 95 1010.4
20260510101828 69 360 1.0 3.0 0.00 0.00 0.00 95 1010.4
20260510101326 69 360 1.0 3.0 0.00 0.00 0.00 94 1010.5
20260510100827 69 360 1.0 5.0 0.00 0.00 0.00 94 1010.6
20260510100327 69 360 1.0 5.0 0.00 0.00 0.00 94 1010.5
20260510095847 69 360 2.0 5.0 0.00 0.01 0.00 94 1010.5
20260510095346 69 360 1.0 4.0 0.00 0.01 0.00 94 1010.5
20260510094824 69 360 2.0 4.0 0.00 0.01 0.00 94 1010.5
20260510094323 70 360 1.0 3.0 0.00 0.01 0.00 93 1010.5
20260510093822 70 360 1.0 3.0 0.00 0.01 0.00 93 1010.4
20260510093323 70 360 2.0 3.0 0.00 0.01 0.00 93 1010.4
20260510092823 70 360 2.0 5.0 0.00 0.01 0.00 93 1010.4
20260510092321 70 360 1.0 5.0 0.00 0.01 0.00 93 1010.5
20260510091821 70 360 2.0 5.0 0.00 0.01 0.00 92 1010.5
20260510091341 70 360 2.0 5.0 0.00 0.01 0.00 92 1010.5
20260510090819 70 360 2.0 4.0 0.00 0.01 0.00 92 1010.5
20260510090339 70 360 2.0 4.0 0.00 0.01 0.00 91 1010.6
20260510085815 71 360 2.0 4.0 0.00 0.01 0.00 91 1010.6
20260510085316 71 360 2.0 4.0 0.00 0.01 0.00 91 1010.6
20260510084815 71 360 2.0 5.0 0.00 0.01 0.00 90 1010.5
20260510084333 71 360 2.0 5.0 0.00 0.01 0.00 90 1010.6
20260510083831 71 360 3.0 5.0 0.00 0.01 0.00 90 1010.6
20260510083349 71 360 2.0 4.0 0.00 0.01 0.00 90 1010.6
20260510082829 71 360 2.0 4.0 0.00 0.01 0.00 90 1010.6
20260510082329 71 360 2.0 5.0 0.00 0.01 0.00 89 1010.5
20260510081316 72 360 2.0 6.0 0.00 0.01 0.00 89 1010.5
20260510080814 72 360 3.0 5.0 0.00 0.01 0.00 88 1010.5
20260510080314 72 360 3.0 5.0 0.00 0.01 0.00 88 1010.6
20260510075814 72 360 2.0 4.0 0.00 0.01 0.00 88 1010.6
20260510075330 73 360 3.0 4.0 0.00 0.01 0.00 88 1010.5
20260510074850 73 360 3.0 4.0 0.00 0.01 0.00 87 1010.5
20260510074344 73 360 2.0 8.0 0.00 0.01 0.00 87 1010.5
20260510073822 73 360 4.0 8.0 0.00 0.01 0.00 87 1010.5
20260510073323 73 360 2.0 5.0 0.00 0.01 0.00 87 1010.6
20260510072824 73 360 2.0 5.0 0.00 0.01 0.00 87 1010.6
20260510072323 73 360 3.0 8.0 0.00 0.01 0.00 87 1010.6
20260510071820 73 360 4.0 8.0 0.00 0.01 0.00 87 1010.5
20260510071318 73 360 4.0 8.0 0.00 0.01 0.00 88 1010.6
20260510070819 73 360 3.0 10.0 0.00 0.01 0.00 88 1010.6
20260510070318 73 360 4.0 10.0 0.00 0.01 0.00 89 1010.6
20260510065817 73 360 3.0 9.0 0.00 0.01 0.00 90 1010.6
20260510065315 72 360 3.0 10.0 0.00 0.01 0.00 91 1010.5
20260510064833 72 360 4.0 10.0 0.00 0.01 0.00 92 1010.5
20260510064332 72 360 3.0 6.0 0.00 0.01 0.00 92 1010.5
20260510063832 71 360 2.0 4.0 0.00 0.01 0.00 93 1010.5
20260510063331 71 360 2.0 4.0 0.00 0.01 0.00 93 1010.5
20260510062829 71 360 2.0 4.0 0.00 0.01 0.00 93 1010.5
20260510062327 71 360 2.0 4.0 0.00 0.01 0.00 94 1010.5
20260510061828 70 360 3.0 4.0 0.00 0.01 0.00 95 1010.5
20260510061325 70 360 3.0 4.0 0.00 0.01 0.00 95 1010.6
20260510060824 69 360 2.0 4.0 0.00 0.01 0.00 95 1010.6
20260510060322 69 360 2.0 4.0 0.00 0.01 0.00 95 1010.6
20260510055829 69 360 2.0 3.0 0.00 0.01 0.00 94 1010.6
20260510055328 69 360 1.0 3.0 0.00 0.01 0.00 94 1010.5
20260510054828 69 360 1.0 3.0 0.00 0.01 0.00 94 1010.5
20260510054326 69 360 1.0 2.0 0.00 0.01 0.00 94 1010.4
20260510053827 69 360 0.0 1.0 0.00 0.01 0.00 94 1010.5
20260510053326 69 360 0.0 0.0 0.00 0.01 0.00 93 1010.4
20260510052847 69 360 0.0 0.0 0.00 0.01 0.00 93 1010.4
20260510052325 69 360 0.0 0.0 0.00 0.01 0.00 93 1010.4
20260510051825 69 360 0.0 0.0 0.00 0.01 0.00 93 1010.4
20260510051325 69 360 0.0 0.0 0.00 0.01 0.00 93 1010.4
20260510050844 69 360 0.0 2.0 0.00 0.01 0.00 93 1010.4
20260510050321 70 360 0.0 2.0 0.00 0.01 0.00 93 1010.3
20260510045816 70 360 0.0 0.0 0.00 0.01 0.01 93 1010.3
20260510045335 70 360 0.0 1.0 0.00 0.01 0.01 93 1010.2
20260510044813 70 360 0.0 1.0 0.00 0.01 0.01 92 1010.2
20260510044313 70 360 0.0 0.0 0.00 0.01 0.01 92 1010.2
20260510043814 70 360 0.0 1.0 0.00 0.01 0.01 92 1010.1
20260510043326 70 360 0.0 1.0 0.00 0.01 0.01 92 1010.0
20260510042825 70 360 0.0 1.0 0.00 0.01 0.01 92 1010.1
20260510042324 70 360 0.0 0.0 0.00 0.01 0.01 92 1010.0
20260510041824 70 360 0.0 0.0 0.00 0.01 0.01 92 1010.0
20260510041324 71 360 0.0 0.0 0.00 0.01 0.01 92 1010.0
20260510040823 71 360 0.0 0.0 0.00 0.01 0.01 91 1009.9
20260510040322 71 360 0.0 0.0 0.00 0.01 0.01 91 1009.9
20260510035822 71 360 0.0 0.0 0.00 0.01 0.01 91 1009.8
20260510035320 71 360 0.0 0.0 0.00 0.01 0.01 91 1009.8
20260510034819 71 360 0.0 0.0 0.00 0.01 0.01 91 1009.8
20260510034317 72 360 0.0 0.0 0.00 0.01 0.01 90 1009.8
20260510033837 72 360 0.0 0.0 0.00 0.01 0.01 90 1009.8
20260510033313 72 360 0.0 0.0 0.00 0.01 0.01 90 1009.8
20260510032813 72 360 0.0 0.0 0.00 0.01 0.01 90 1009.7
20260510032314 72 360 0.0 0.0 0.00 0.01 0.01 89 1009.6
20260510031832 72 360 0.0 0.0 0.00 0.01 0.01 89 1009.6
20260510031331 73 360 0.0 0.0 0.00 0.01 0.01 88 1009.5
20260510030830 73 360 0.0 0.0 0.00 0.01 0.01 88 1009.5
20260510030350 73 360 0.0 0.0 0.00 0.01 0.01 87 1009.4
20260510025827 73 360 0.0 0.0 0.00 0.01 0.01 87 1009.2
20260510025314 74 360 0.0 0.0 0.00 0.01 0.01 87 1009.1
20260510024830 74 360 0.0 0.0 0.00 0.01 0.01 86 1009.0
20260510024329 74 360 0.0 0.0 0.00 0.01 0.01 86 1009.0
20260510023830 74 360 0.0 0.0 0.00 0.01 0.01 85 1008.9
20260510023328 75 360 0.0 0.0 0.00 0.01 0.01 84 1008.8
20260510022827 75 360 0.0 0.0 0.00 0.01 0.01 84 1008.7
20260510022329 75 360 0.0 0.0 0.00 0.01 0.01 84 1008.7
20260510021827 76 360 0.0 0.0 0.00 0.01 0.01 83 1008.6
20260510021348 76 360 0.0 0.0 0.00 0.01 0.01 83 1008.6
20260510020847 77 360 0.0 0.0 0.00 0.01 0.01 82 1008.6
20260510020327 77 360 0.0 0.0 0.00 0.01 0.01 81 1008.6
20260510015813 78 360 0.0 0.0 0.00 0.01 0.01 81 1008.5
20260510015351 78 360 0.0 0.0 0.00 0.01 0.01 80 1008.4
20260510014850 78 360 0.0 0.0 0.00 0.01 0.01 80 1008.4
20260510014327 79 360 0.0 0.0 0.00 0.01 0.01 79 1008.3
20260510013814 80 360 0.0 1.0 0.00 0.01 0.01 78 1008.3
20260510013331 80 360 0.0 2.0 0.00 0.01 0.01 77 1008.2
20260510012830 80 360 0.0 3.0 0.00 0.01 0.01 76 1008.1
20260510012328 81 360 1.0 6.0 0.00 0.01 0.01 75 1008.1
20260510011829 81 360 2.0 6.0 0.00 0.01 0.01 75 1008.1
20260510011345 81 360 1.0 4.0 0.00 0.01 0.01 75 1008.1
20260510010822 82 360 1.0 6.0 0.00 0.01 0.01 74 1008.1
20260510010323 82 360 2.0 6.0 0.00 0.01 0.01 74 1008.2
20260510005841 82 360 3.0 6.0 0.00 0.01 0.01 74 1008.1
20260510005318 83 360 2.0 5.0 0.00 0.01 0.01 74 1008.0
20260510004818 83 360 2.0 9.0 0.00 0.01 0.01 74 1008.0
20260510004317 84 360 2.0 9.0 0.00 0.01 0.01 74 1007.9
20260510003835 84 360 4.0 11.0 0.00 0.01 0.01 75 1008.0
20260510003353 85 360 3.0 9.0 0.00 0.01 0.01 76 1008.0
20260510002830 85 360 2.0 6.0 0.00 0.01 0.01 76 1007.9
20260510002330 85 360 1.0 6.0 0.00 0.01 0.01 77 1007.9
20260510001830 85 360 2.0 6.0 0.00 0.01 0.01 75 1007.8
20260510001329 86 360 2.0 8.0 0.00 0.01 0.01 75 1007.8
20260510000828 86 360 3.0 8.0 0.00 0.01 0.01 74 1007.7
20260510000327 86 360 2.0 5.0 0.00 0.01 0.01 75 1007.7
20260509235827 86 360 2.0 5.0 0.00 0.01 0.01 74 1007.6
20260509235326 87 360 1.0 5.0 0.00 0.01 0.01 73 1007.6
20260509234824 87 360 1.0 5.0 0.00 0.01 0.01 72 1007.6
20260509234323 87 360 1.0 5.0 0.00 0.01 0.01 73 1007.6
20260509233841 87 360 2.0 4.0 0.00 0.01 0.01 72 1007.5
20260509233319 88 360 1.0 4.0 0.00 0.01 0.01 71 1007.5
20260509232818 88 360 1.0 3.0 0.00 0.01 0.01 72 1007.4
20260509232318 88 360 1.0 3.0 0.00 0.01 0.01 70 1007.4
20260509231817 89 360 0.0 3.0 0.00 0.01 0.01 72 1007.3
20260509231336 88 360 1.0 4.0 0.00 0.01 0.01 69 1007.2
20260509230815 88 360 0.0 4.0 0.00 0.01 0.01 69 1007.3
20260509230313 87 360 1.0 3.0 0.00 0.01 0.01 70 1007.3
20260509225813 87 360 1.0 3.0 0.00 0.01 0.01 70 1007.3
20260509225313 85 360 1.0 3.0 0.00 0.01 0.01 72 1007.4
20260509224832 84 360 1.0 3.0 0.00 0.01 0.01 73 1007.3
20260509224331 82 360 1.0 3.0 0.00 0.01 0.01 75 1007.3
20260509223849 81 360 0.0 1.0 0.00 0.01 0.01 76 1007.3
20260509223327 81 360 0.0 2.0 0.00 0.01 0.01 76 1007.3
20260509222848 81 360 1.0 3.0 0.00 0.01 0.01 76 1007.2
20260509222328 82 360 0.0 3.0 0.00 0.01 0.01 76 1007.3
20260509221830 82 360 1.0 3.0 0.00 0.01 0.01 73 1007.4
20260509221328 83 360 0.0 2.0 0.00 0.01 0.01 73 1007.5
20260509220844 83 360 0.0 2.0 0.00 0.01 0.01 72 1007.5
20260509220323 84 360 1.0 2.0 0.00 0.01 0.01 71 1007.4
20260509215824 85 360 0.0 2.0 0.00 0.01 0.01 69 1007.3
20260509215344 85 360 1.0 3.0 0.00 0.01 0.01 69 1007.3
20260509214824 86 360 2.0 4.0 0.00 0.01 0.01 66 1007.3
20260509214342 87 360 2.0 5.0 0.00 0.01 0.01 65 1007.3
20260509213818 87 360 2.0 11.0 0.00 0.01 0.01 64 1007.4
20260509213319 88 360 3.0 12.0 0.00 0.01 0.01 64 1007.3
20260509212838 90 360 4.0 12.0 0.00 0.01 0.01 62 1007.5
20260509212318 92 360 1.0 8.0 0.00 0.01 0.01 63 1007.3
20260509211817 93 360 1.0 3.0 0.00 0.01 0.01 60 1007.3
20260509211316 93 360 1.0 4.0 0.00 0.01 0.01 57 1007.3
20260509210817 94 360 2.0 9.0 0.00 0.01 0.01 58 1007.3
20260509210315 95 360 4.0 10.0 0.00 0.01 0.01 55 1007.3
20260509205813 95 360 3.0 8.0 0.00 0.01 0.01 54 1007.3
20260509205333 94 360 1.0 8.0 0.00 0.01 0.01 54 1007.5
20260509204851 95 360 4.0 8.0 0.00 0.01 0.01 53 1007.6
20260509204329 94 360 3.0 8.0 0.00 0.01 0.01 55 1007.8
20260509203827 94 360 3.0 5.0 0.00 0.01 0.01 55 1008.0
20260509203353 95 360 2.0 5.0 0.00 0.01 0.01 56 1008.1
20260509202830 95 360 1.0 4.0 0.00 0.01 0.01 55 1008.2
20260509202331 95 360 1.0 6.0 0.00 0.01 0.01 61 1008.1
20260509201830 94 360 3.0 6.0 0.00 0.01 0.01 56 1008.0
20260509201350 94 360 2.0 6.0 0.00 0.01 0.01 59 1008.3
20260509200829 94 360 4.0 6.0 0.00 0.01 0.01 58 1008.4
20260509200328 94 360 2.0 4.0 0.00 0.01 0.01 58 1008.4
20260509195814 94 360 2.0 5.0 0.00 0.01 0.01 57 1008.4
20260509195331 94 360 2.0 6.0 0.00 0.01 0.01 59 1008.5
20260509194828 94 360 4.0 8.0 0.00 0.01 0.01 59 1008.6
20260509194328 93 360 5.0 8.0 0.00 0.01 0.01 60 1008.6
20260509193826 93 360 2.0 5.0 0.00 0.01 0.01 63 1008.6
20260509193325 93 360 2.0 5.0 0.00 0.01 0.01 61 1008.6
20260509192822 93 360 1.0 5.0 0.00 0.01 0.01 64 1008.6
20260509192321 92 360 1.0 6.0 0.00 0.01 0.01 66 1008.7
20260509191821 92 360 3.0 6.0 0.00 0.01 0.01 64 1008.7
20260509191319 91 360 2.0 3.0 0.00 0.01 0.01 66 1008.8
20260509190818 91 360 2.0 5.0 0.00 0.01 0.01 65 1009.0
20260509190336 91 360 1.0 5.0 0.00 0.01 0.01 65 1009.1
20260509185827 91 360 3.0 6.0 0.00 0.01 0.01 65 1009.4
20260509185345 91 360 4.0 6.0 0.00 0.01 0.01 67 1009.5
20260509184824 90 360 1.0 4.0 0.00 0.01 0.01 69 1009.5
20260509184322 90 360 2.0 5.0 0.00 0.01 0.01 68 1009.6
20260509183822 90 360 1.0 9.0 0.00 0.01 0.01 68 1009.6
20260509183319 90 360 5.0 9.0 0.00 0.01 0.01 71 1009.6
20260509182818 90 360 1.0 8.0 0.00 0.01 0.01 71 1009.6
20260509182318 90 360 5.0 9.0 0.00 0.01 0.01 70 1009.6
20260509181818 90 360 3.0 8.0 0.00 0.01 0.01 70 1009.7
20260509181319 90 360 3.0 12.0 0.00 0.01 0.01 68 1009.8
20260509180818 90 360 5.0 12.0 0.00 0.01 0.01 71 1009.8
20260509180316 89 360 3.0 8.0 0.00 0.01 0.01 73 1009.9
20260509175813 88 360 4.0 6.0 0.00 0.01 0.01 77 1009.9
20260509175313 87 360 3.0 6.0 0.00 0.01 0.01 76 1010.0
20260509174814 87 360 3.0 6.0 0.00 0.01 0.01 75 1010.1
20260509174314 87 360 2.0 4.0 0.00 0.01 0.01 76 1010.1
20260509173814 87 360 1.0 8.0 0.00 0.01 0.01 77 1010.2
20260509173314 87 360 2.0 8.0 0.00 0.01 0.01 76 1010.3
20260509172832 87 360 2.0 6.0 0.00 0.01 0.01 76 1010.2
20260509172331 86 360 1.0 5.0 0.00 0.01 0.01 77 1010.2
20260509171850 86 360 3.0 8.0 0.00 0.01 0.01 76 1010.3
20260509171329 86 360 4.0 8.0 0.00 0.01 0.01 77 1010.3
20260509170829 86 360 1.0 9.0 0.00 0.01 0.01 77 1010.3
20260509170315 86 360 5.0 9.0 0.00 0.01 0.01 78 1010.3
20260509165852 85 360 3.0 5.0 0.00 0.01 0.01 77 1010.3
20260509165331 85 360 3.0 5.0 0.00 0.01 0.01 79 1010.4
20260509164830 84 360 2.0 5.0 0.00 0.01 0.01 81 1010.4
20260509164328 83 360 2.0 4.0 0.00 0.01 0.01 83 1010.5
20260509163828 83 360 1.0 3.0 0.00 0.01 0.01 82 1010.4
20260509163325 83 360 2.0 6.0 0.00 0.01 0.01 81 1010.4
20260509162846 83 360 2.0 8.0 0.00 0.01 0.01 82 1010.4
20260509162325 83 360 3.0 9.0 0.00 0.01 0.01 81 1010.4
20260509161845 83 360 5.0 9.0 0.00 0.01 0.01 82 1010.6
20260509161323 83 360 4.0 8.0 0.00 0.01 0.01 82 1010.5
20260509160823 83 360 3.0 8.0 0.00 0.01 0.01 82 1010.4
20260509160323 82 360 4.0 8.0 0.00 0.01 0.01 82 1010.3
20260509155822 82 360 4.0 8.0 0.00 0.01 0.01 83 1010.3
20260509155319 82 360 2.0 8.0 0.00 0.01 0.01 86 1010.3
20260509154818 81 360 4.0 8.0 0.00 0.01 0.01 87 1010.3
20260509154316 81 360 2.0 3.0 0.00 0.01 0.01 89 1010.2
20260509153815 80 360 1.0 4.0 0.00 0.01 0.01 91 1010.2
20260509153315 79 360 2.0 4.0 0.00 0.01 0.01 92 1010.2
20260509152813 79 360 2.0 5.0 0.00 0.01 0.01 92 1010.0
20260509152330 78 360 2.0 5.0 0.00 0.01 0.01 94 1009.9
20260509151830 77 360 2.0 6.0 0.00 0.01 0.01 95 1009.9
20260509151326 77 360 4.0 6.0 0.00 0.01 0.01 97 1010.0
20260509150826 76 360 2.0 8.0 0.00 0.01 0.01 98 1010.2
20260509150341 76 360 5.0 8.0 0.00 0.01 0.01 98 1010.2
20260509145818 76 360 2.0 4.0 0.00 0.01 0.01 99 1010.3
20260509145319 75 360 0.0 3.0 0.00 0.01 0.01 99 1010.6
20260509144818 75 360 2.0 3.0 0.00 0.01 0.01 99 1010.7
20260509144317 75 360 2.0 3.0 0.00 0.01 0.01 99 1010.8
20260509143818 75 360 0.0 1.0 0.00 0.01 0.01 99 1010.8
20260509143317 75 360 0.0 2.0 0.00 0.01 0.01 99 1010.6
20260509142817 75 360 1.0 3.0 0.00 0.01 0.01 99 1010.8
20260509142315 75 360 2.0 3.0 0.00 0.01 0.01 99 1010.7
20260509141815 75 360 0.0 2.0 0.00 0.01 0.01 99 1010.6
20260509141315 75 360 1.0 3.0 0.00 0.01 0.01 99 1010.2
20260509140815 75 360 1.0 3.0 0.00 0.01 0.01 99 1010.2
20260509140315 75 360 1.0 3.0 0.00 0.01 0.01 99 1010.2
20260509135816 75 360 0.0 3.0 0.00 0.01 0.01 99 1009.9
20260509135316 75 360 1.0 3.0 0.00 0.01 0.01 99 1009.9
20260509134816 74 360 0.0 3.0 0.00 0.01 0.01 99 1010.3
20260509134315 74 360 0.0 1.0 0.00 0.01 0.01 99 1010.2
20260509133814 74 360 0.0 2.0 0.00 0.01 0.01 99 1010.2
20260509133314 74 360 1.0 2.0 0.00 0.01 0.01 99 1010.0
20260509132815 74 360 0.0 1.0 0.00 0.01 0.01 99 1010.1
20260509132334 74 360 0.0 0.0 0.00 0.01 0.01 99 1010.5
20260509131814 74 360 0.0 0.0 0.00 0.01 0.01 99 1010.5
20260509131332 74 360 0.0 0.0 0.00 0.01 0.01 99 1010.5
20260509130832 74 360 0.0 0.0 0.00 0.01 0.01 99 1010.4
20260509130331 74 360 0.0 1.0 0.00 0.01 0.01 99 1010.3
20260509125829 74 360 0.0 2.0 0.00 0.01 0.01 99 1010.3
20260509125330 74 360 0.0 2.0 0.00 0.01 0.01 99 1010.0
20260509124849 74 360 0.0 2.0 0.00 0.01 0.01 99 1009.9